Weather History for Salem, OR

Change the Weather History Date:

Wednesday, February 6, 2013

  Actual Average Record
Temperature  
Mean Temperature 48 °F 42 °F  
Max Temperature 53 °F 50 °F 67 °F (1998)
Min Temperature 42 °F 35 °F 3 °F (1899)
Degree Days  
Heating Degree Days 17 23  
Month to date heating degree days 126 138  
Since 1 July heating degree days 2593 2765  
Cooling Degree Days 0 0  
Month to date cooling degree days 0 0  
Year to date cooling degree days 0 0  
Moisture  
Dew Point 41 °F    
Average Humidity 80    
Maximum Humidity 96    
Minimum Humidity 64    
Precipitation  
Precipitation 0.10 in 0.17 in 2.80 in (1943)
Month to date precipitation 0.22 1.01  
Year to date precipitation 1.85 6.97  
Snow  
Snow 0.00 in - - ()
Month to date snowfall 0.0  
Snow Depth 0.00 in    
Sea Level Pressure  
Sea Level Pressure 30.02 in    
Wind  
Wind Speed 11 mph (South)    
Max Wind Speed 23 mph    
Max Gust Speed 31 mph    
Visibility 10 miles    
Events Rain    
T = Trace of Precipitation, MM = Missing Value Source: NWS Daily Summary

Daily Weather History Graph

Daily Weather History Graph

Search for Another Location

Airport:

Trip Planner

Search our weather history database for the weather conditions in past years. The results will help you decide how hot, cold, wet, or windy it might be!

Date:

Astronomy

Feb. 06, 2013 Rise Set
Actual Time 7:24 AM PST 5:27 PM PST
Civil Twilight 6:54 AM PST 5:58 PM PST
Nautical Twilight 6:19 AM PST 6:33 PM PST
Astronomical Twilight 5:45 AM PST 7:07 PM PST
Moon 4:19 AM PST (2/6) 1:47 PM PST (2/6)
Length of Visible Light 11h 04m
Length of Day
10h 02m
Waning Crescent, 16% of the Moon is Illuminated
Feb 6
Waning Crescent
Feb 9
New
Feb 17
First Quarter
Feb 25
Full
Mar 4
Last Quarter

Hourly Weather History & Observations

Time (PST) Temp. Windchill Dew Point Humidity Pressure Visibility Wind Dir Wind Speed Gust Speed Precip Events Conditions
12:56 AM 44.1 °F 38.1 °F 41.0 °F 89% 30.09 in 10.0 mi South 11.5 mph - N/A   Overcast
1:13 AM 44.6 °F 40.2 °F 41.0 °F 87% 30.09 in 10.0 mi South 8.1 mph - 0.00 in Rain Light Rain
1:25 AM 44.6 °F 39.7 °F 41.0 °F 87% 30.10 in 8.0 mi South 9.2 mph - 0.00 in Rain Light Rain
2:56 AM 43.0 °F 38.2 °F 41.0 °F 93% 30.11 in 10.0 mi South 8.1 mph - N/A   Overcast
3:56 AM 43.0 °F 37.2 °F 41.0 °F 93% 30.11 in 10.0 mi South 10.4 mph - 0.01 in   Mostly Cloudy
4:56 AM 43.0 °F 36.0 °F 39.9 °F 89% 30.11 in 10.0 mi South 13.8 mph - N/A   Clear
5:56 AM 43.0 °F 38.8 °F 39.9 °F 89% 30.10 in 10.0 mi SSE 6.9 mph - N/A   Mostly Cloudy
6:56 AM 44.1 °F 38.1 °F 41.0 °F 89% 30.10 in 10.0 mi South 11.5 mph - N/A   Overcast
7:56 AM 45.0 °F 38.5 °F 41.0 °F 86% 30.10 in 10.0 mi South 13.8 mph 18.4 mph 0.00 in   Mostly Cloudy
8:56 AM 46.0 °F 40.6 °F 41.0 °F 83% 30.11 in 10.0 mi South 11.5 mph - N/A   Overcast
9:56 AM 46.9 °F - 41.0 °F 80% 30.10 in 10.0 mi SSE 12.7 mph - N/A   Overcast
10:56 AM 48.0 °F - 41.0 °F 77% 30.09 in 10.0 mi South 10.4 mph - N/A   Mostly Cloudy
11:56 AM 50.0 °F - 42.1 °F 74% 30.06 in 10.0 mi SSE 11.5 mph - N/A   Mostly Cloudy
12:56 PM 51.1 °F - 41.0 °F 68% 30.03 in 10.0 mi South 16.1 mph - N/A   Mostly Cloudy
1:56 PM 53.1 °F - 41.0 °F 64% 30.00 in 10.0 mi South 12.7 mph - N/A   Mostly Cloudy
2:56 PM 50.0 °F - 42.1 °F 74% 29.99 in 10.0 mi SSW 12.7 mph - 0.00 in   Overcast
3:56 PM 50.0 °F - 41.0 °F 71% 29.98 in 10.0 mi South 4.6 mph - 0.00 in   Overcast
4:56 PM 50.0 °F - 39.9 °F 68% 29.95 in 10.0 mi SSE 6.9 mph - N/A   Mostly Cloudy
5:56 PM 48.9 °F - 39.9 °F 71% 29.93 in 10.0 mi South 5.8 mph - N/A   Overcast
6:56 PM 48.9 °F - 41.0 °F 74% 29.91 in 10.0 mi SSE 9.2 mph - N/A   Mostly Cloudy
7:56 PM 46.9 °F - 41.0 °F 80% 29.88 in 10.0 mi SE 8.1 mph - N/A   Mostly Cloudy
8:56 PM 46.9 °F - 41.0 °F 80% 29.86 in 10.0 mi SSE 6.9 mph - N/A   Overcast
9:56 PM 46.9 °F - 39.9 °F 77% 29.86 in 10.0 mi South 13.8 mph 24.2 mph 0.02 in Rain Light Rain
10:56 PM 44.1 °F 37.4 °F 39.0 °F 82% 29.92 in 10.0 mi SW 13.8 mph 23.0 mph 0.05 in Rain Light Rain
11:56 PM 42.1 °F 36.6 °F 37.9 °F 85% 29.94 in 10.0 mi South 9.2 mph - 0.01 in Rain Light Rain